Regional Weather Roundup
Issued by NWS

Home | Current Version | Previous Version | Text Only | Print | Product List | Glossary Off
Versions: 1 2 3 4 5 6 7 8 9 10 11 12 13 14 15 16 17 18 19 20 21 22 23 24 25 26 27 28 29 30 31 32 33 34 35 36 37 38 39 40 41 42 43 44 45 46 47 48 49 50

000
ASUS45 KSLC 280410
RWRUT

UTAH REGIONAL WEATHER ROUNDUP
NATIONAL WEATHER SERVICE SALT LAKE CITY UT
900 PM MST TUE JAN 27 2015

UTZ001>011-023>025-280500-

NORTHERN UTAH

CITY           SKY/WX    TMP DP  RH WIND       PRES   REMARKS
BRIGHAM CITY   CLOUDY    40  38  89 SE8       30.17F
HILL AFB       MIX PCPN  41  36  81 NW10      30.18R
LOGAN          LGT RAIN  39  35  86 SE9       30.16R WCI  33
OGDEN          CLOUDY    40  37  89 CALM      30.16R FOG
PROVO AIRPORT  MOCLDY    39  34  81 CALM      30.19S
SALT LAKE CITY MOCLDY    40  36  86 VRB5      30.16R
VERNAL         CLOUDY    35  26  69 W5        30.23S WCI  31
WENDOVER       MOCLDY    37  30  75 NE7       30.15F WCI  32
HEBER CITY     MIX PCPN  39  32  75 CALM      30.18S
WEST JORDAN    CLOUDY    46  37  71 SE10      30.17R

$$

UTZ012>022-026-027-280500-

SOUTHERN/CENTRAL UTAH

CITY           SKY/WX    TMP DP  RH WIND       PRES   REMARKS
BLANDING       PTCLDY    37  31  79 N3        30.34S
BRYCE CANYON   CLOUDY    29  28  96 SW3       30.30S
CEDAR CITY     CLEAR     37  33  85 SW5       30.24S WCI  33
DELTA          PTCLDY    41  33  72 S10       30.20S
MILFORD        PTCLDY    42  34  73 S15       30.22S
MOAB/CYNLANDS  PTCLDY    37  32  82 W5        30.22F WCI  33
PRICE          CLOUDY    41  27  57 E5        30.24F
ST GEORGE      PTCLDY    48  43  81 SE8       30.25S
KANAB          CLEAR     37  37 100 CALM      30.30S

$$

REGIONAL REPORTS     COLORADO/ARIZONA

CITY           SKY/WX    TMP DP  RH WIND       PRES   REMARKS
CRAIG, CO      CLOUDY    35  30  82 CALM      30.23F
GRAND JUNCTION MOCLDY    34  28  79 E6        30.25S WCI  29
RIFLE          CLOUDY    39  27  62 E5        30.25S
MONTROSE       PTCLDY    34  24  67 SE10      30.28S WCI  26
CORTEZ         CLOUDY    36  29  75 E6        30.28S WCI  31
PAGE, AZ       NOT AVBL
GRAND CANYON   PTCLDY    33  31  92 CALM      30.31R
KINGMAN        CLEAR     49  45  86 S7        30.23S
FLAGSTAFF      PTCLDY    32  28  85 CALM      30.32S

$$

REGIONAL REPORTS    NEVADA/IDAHO/WYOMING

CITY           SKY/WX    TMP DP  RH WIND       PRES   REMARKS
LAS VEGAS, NV  PTCLDY    57  48  72 SW6       30.17S
ELY            CLOUDY    37  34  89 S15       30.22S WCI  28
ELKO           CLOUDY    39  36  89 SW13      30.17R WCI  31
POCATELLO, ID  CLOUDY    44  38  79 S9        30.12S
BURLEY         LGT RAIN  40  38  93 W7        30.11R
EVANSTON, WY   PTCLDY    36  30  79 SW13      30.17F WCI  27
ROCK SPRINGS   CLOUDY    38  26  62 S7        30.17R WCI  33
KEMMERER       PTCLDY    32  28  86 NW3       30.18S

$$


USA.gov is the U.S. government's official web portal to all federal, state and local government web resources and services.